Wind_Speed
23 21 23 25 23 24 26 24 23 25 25 25 25 22 21 23 25 26 24 22 21 22 25 28 32 32 31 29 29 29 31 28 29 30 32 34 38 42 46 50 53 55 56 55
22 22 27 27 25 24 25 25 25 25 23 25 27 28 25 22 23 26 28 26 26 28 32 36 37 35 32 31 33 33 32 33 35 37 39 41 46 49 51 52 56 58 57 56
24 26 29 28 27 26 26 26 25 25 25 25 28 28 23 23 26 28 29 31 32 34 37 39 36 34 33 34 35 36 36 37 40 44 47 49 52 53 56 58 58 57 59 61
25 27 29 28 27 27 26 27 26 25 25 27 27 27 24 25 28 30 32 34 36 37 38 36 32 30 32 35 36 38 39 42 46 51 52 53 55 57 59 58 59 62 63 65
25 26 29 27 26 27 28 28 27 25 26 27 28 29 28 28 30 33 34 35 34 33 33 33 33 32 34 35 37 39 43 46 48 51 54 57 56 58 62 65 68 69 69 73
26 27 28 27 26 26 28 29 28 29 29 28 28 29 30 29 30 31 32 34 34 32 34 34 35 35 35 38 39 41 45 47 50 55 60 63 65 68 71 73 76 77 79 83
26 26 26 26 26 27 28 27 25 26 27 27 26 29 29 30 30 30 31 32 34 36 36 36 35 34 33 36 39 43 46 52 58 63 66 69 72 75 77 78 80 83 85 85
25 25 25 24 25 26 27 27 26 27 28 29 30 31 33 33 32 33 34 34 34 32 30 31 32 33 35 40 44 49 55 61 65 68 71 73 75 78 80 82 84 84 81 79
24 24 22 21 21 24 26 27 27 28 31 33 36 37 37 35 36 37 35 33 31 28 28 31 35 37 41 47 52 56 61 65 67 69 72 76 79 81 83 83 79 76 73 67
23 22 21 19 20 21 23 25 26 29 33 36 40 43 42 39 37 36 33 31 30 30 31 34 39 43 49 53 57 61 65 69 73 76 78 81 83 82 79 76 76 71 65 63
25 23 24 24 24 25 25 26 27 30 32 37 40 41 40 38 36 32 31 31 32 34 38 42 47 50 53 57 60 65 70 74 76 79 80 80 77 75 73 70 66 63 61 62
29 28 31 33 31 31 30 30 31 34 37 38 40 41 38 36 33 31 32 34 37 41 45 48 51 54 58 62 67 71 75 78 79 78 76 72 68 63 61 61 61 61 60 59
35 35 34 35 36 36 34 34 36 36 37 39 42 40 34 33 33 34 36 39 42 45 47 51 55 59 64 68 72 75 76 76 74 73 70 63 57 56 54 53 53 53 52 49
39 39 37 37 38 39 39 40 41 40 42 42 39 37 35 35 36 38 40 43 46 49 52 55 59 64 69 73 75 74 74 72 72 67 57 50 48 46 42 41 41 41 38 34
41 40 40 41 43 44 45 45 43 42 43 41 38 38 38 38 39 41 43 46 49 53 57 61 65 68 72 73 74 74 72 68 62 51 46 43 40 37 36 36 33 30 28 27
42 42 42 43 45 46 47 46 45 44 41 38 37 37 37 38 40 42 46 49 53 57 60 64 67 68 70 71 71 69 62 51 46 45 43 38 36 32 30 26 23 22 23 23
43 43 43 44 45 46 47 44 43 40 37 36 35 36 37 38 41 44 48 52 55 58 61 63 64 65 67 67 61 51 43 42 42 40 33 27 22 20 18 17 20 22 24 23
45 44 44 43 42 43 42 40 38 36 35 35 35 35 36 39 43 47 50 53 55 58 61 62 61 60 57 51 45 43 42 36 29 20 11 8 11 12 14 19 22 22 19 17
44 46 45 44 43 45 43 39 36 34 33 32 33 35 38 42 45 49 51 53 56 58 57 56 52 47 42 40 39 36 25 12 7 9 9 9 10 13 17 17 18 18 16 17
39 41 44 46 46 46 43 39 35 33 31 32 34 37 40 43 46 47 50 53 54 51 48 44 39 37 33 29 21 14 16 16 16 15 13 13 15 16 15 17 18 17 17 19
35 38 41 44 45 43 38 33 28 29 31 32 35 38 41 44 46 48 50 50 47 43 39 36 32 28 17 8 11 16 16 16 16 17 18 18 17 15 18 20 21 21 21 22
33 35 38 40 38 32 28 25 26 28 30 33 36 39 43 45 46 46 46 42 36 34 31 28 21 8 4 10 14 15 16 18 19 19 19 18 20 21 23 25 26 25 25 25
33 32 32 33 30 28 26 25 26 28 31 34 38 41 43 44 43 42 37 30 27 24 21 12 1 8 12 14 17 19 20 22 22 21 20 21 23 25 27 28 28 29 30 31
35 33 31 29 25 23 24 25 27 30 31 35 39 41 42 40 36 30 25 22 18 14 5 4 9 12 15 19 22 24 23 22 21 21 23 25 27 29 29 30 31 32 32 32
31 29 25 22 21 23 25 27 29 30 33 37 38 37 34 31 25 21 18 14 8 3 8 8 11 16 21 24 22 21 22 22 23 24 26 27 29 30 32 33 32 31 31 31
22 21 20 21 23 26 28 29 31 33 33 34 33 30 24 20 17 14 11 5 6 7 6 11 20 25 24 22 22 23 24 24 23 24 26 28 30 30 32 33 34 34 34 34
Wind_Direction
267 268 265 263 265 267 271 270 268 265 265 264 268 268 265 264 270 281 288 291 291 295 309 313 316 314 307 300 291 289 293 297 297 296 297 294 288 286 287 288 291 295 295 293
265 262 259 263 266 268 271 270 269 268 266 260 259 261 264 263 271 274 279 285 294 304 310 311 312 310 305 299 296 296 294 296 296 296 293 290 292 293 293 294 296 297 296 295
259 258 262 264 265 265 265 265 265 266 268 266 263 262 266 271 275 280 287 295 299 300 300 302 302 300 298 296 297 293 293 294 292 291 292 293 294 297 298 299 298 296 296 294
261 262 264 264 266 268 267 267 267 266 266 265 263 264 270 274 279 283 284 287 290 292 294 295 292 288 290 290 288 286 286 286 287 289 290 294 297 300 301 300 298 300 302 301
262 260 262 264 264 265 266 267 268 267 261 259 259 262 262 262 265 271 277 282 286 290 289 287 284 282 281 280 281 281 284 286 289 291 295 297 297 297 299 299 299 298 297 296
261 260 261 261 260 259 262 265 267 266 268 269 270 273 275 277 277 276 278 281 283 283 282 281 280 278 277 278 281 283 287 289 292 296 298 299 298 297 297 296 297 296 295 293
261 261 260 258 255 255 257 259 264 268 275 279 281 281 281 281 283 284 284 282 282 284 284 282 283 284 281 283 287 291 293 295 297 297 297 296 295 293 292 291 291 291 293 295
261 262 262 260 258 260 263 267 271 275 279 279 278 281 285 285 287 290 291 291 291 291 290 291 290 288 284 284 287 291 294 295 294 294 293 292 290 290 290 292 295 297 298 298
259 264 268 265 260 258 261 265 270 273 278 282 288 291 292 294 298 300 300 299 299 296 294 293 288 284 284 286 289 292 293 294 294 294 293 294 295 296 297 299 300 299 300 298
264 264 268 269 263 257 257 262 267 271 278 284 290 293 297 299 301 302 302 300 298 295 290 287 286 287 288 289 291 293 296 298 298 298 298 299 300 302 301 300 299 299 298 297
266 267 271 271 261 257 257 261 271 278 284 288 291 292 297 300 300 299 297 295 293 292 289 289 290 290 290 292 296 298 298 297 297 298 300 301 301 301 301 300 299 298 295 293
259 259 260 263 262 262 261 267 276 280 285 287 290 293 296 297 296 293 291 290 289 289 289 290 291 293 295 296 297 297 297 298 299 298 298 299 300 300 300 299 297 295 293 290
258 259 256 255 257 262 265 267 272 278 283 284 289 290 291 291 290 289 288 287 288 289 289 290 292 293 293 294 294 295 296 296 296 296 298 300 300 301 300 298 296 295 296 298
256 257 256 257 259 262 264 265 271 277 282 286 288 288 287 286 286 286 286 288 289 288 288 289 289 290 292 294 296 297 297 299 299 300 300 302 304 306 304 302 302 303 304 304
252 252 253 253 256 260 264 266 270 276 281 284 284 284 284 284 285 285 285 286 286 286 288 289 292 295 295 296 297 298 299 300 301 302 303 307 309 310 308 309 309 310 312 313
250 250 250 250 253 257 263 267 272 277 279 279 277 277 278 280 281 282 284 286 288 290 292 293 295 296 296 297 299 299 299 299 300 303 305 306 308 309 313 315 319 325 325 323
251 252 252 253 256 260 264 271 275 276 275 274 274 276 278 280 282 283 285 288 291 293 295 296 298 299 300 301 302 302 301 302 303 304 304 305 310 317 321 324 327 327 325 323
250 252 253 254 256 260 266 270 272 273 275 277 278 279 280 282 285 287 290 294 297 299 302 303 303 302 303 304 306 308 310 310 310 312 321 340 337 331 330 328 330 334 338 347
251 252 253 255 257 261 264 266 269 271 274 276 276 279 283 287 291 295 299 302 304 305 305 305 305 306 306 309 314 318 323 339 38 71 58 20 357 347 340 346 353 355 1 3
254 254 254 255 256 257 259 261 265 268 271 274 280 286 290 294 298 300 302 303 305 306 306 307 309 308 311 321 337 23 67 80 79 63 41 23 12 7 8 360 355 357 356 351
256 258 257 255 255 257 260 259 260 266 272 279 285 289 292 295 299 303 306 307 307 306 307 310 309 308 317 3 62 71 73 72 61 51 43 36 28 18 360 352 349 346 342 338
262 259 257 255 254 254 253 252 259 268 275 281 286 291 294 298 304 306 304 304 305 307 311 311 308 312 84 89 82 78 75 66 58 51 44 31 14 1 350 348 346 345 343 341
259 255 251 248 246 246 248 255 264 272 279 286 290 292 296 301 303 302 302 303 304 310 312 313 353 113 107 98 91 82 74 67 59 46 31 15 4 358 355 353 350 347 344 343
253 247 241 239 240 244 254 264 271 278 283 285 289 294 300 302 301 300 300 302 305 306 298 126 117 112 108 103 95 84 73 59 44 33 22 12 2 356 353 352 350 348 347 346
238 232 232 237 246 256 265 270 275 280 284 290 296 300 303 303 299 298 301 303 292 195 129 111 111 112 110 102 87 75 62 50 39 27 17 7 1 360 359 357 355 352 349 348
221 227 237 249 258 263 268 271 275 282 288 294 299 303 304 300 295 297 299 275 177 141 101 108 117 113 101 91 81 68 56 45 34 23 17 13 10 9 7 5 1 355 351 355
Height
5839 5842 5840 5838 5840 5840 5839 5840 5841 5842 5842 5842 5843 5845 5846 5846 5844 5843 5843 5843 5842 5841 5839 5837 5836 5835 5833 5831 5827 5825 5822 5822 5821 5819 5818 5815 5811 5809 5805 5801 5797 5793 5789 5785
5835 5836 5832 5833 5834 5835 5835 5834 5835 5837 5838 5838 5839 5840 5841 5840 5838 5836 5835 5835 5836 5836 5834 5832 5830 5828 5827 5825 5821 5819 5816 5815 5813 5811 5809 5805 5802 5799 5796 5791 5786 5780 5774 5769
5827 5828 5826 5827 5827 5829 5829 5830 5830 5831 5832 5833 5834 5835 5835 5834 5832 5830 5829 5829 5830 5830 5829 5828 5825 5823 5821 5818 5815 5812 5810 5808 5804 5800 5797 5794 5791 5786 5782 5777 5772 5768 5763 5758
5822 5821 5821 5822 5823 5823 5824 5825 5826 5827 5828 5828 5829 5830 5830 5827 5826 5825 5825 5825 5825 5824 5823 5822 5820 5817 5816 5813 5810 5807 5803 5800 5795 5791 5788 5784 5780 5776 5771 5765 5759 5754 5749 5743
5816 5816 5815 5818 5819 5818 5818 5820 5821 5822 5822 5822 5822 5823 5824 5823 5823 5822 5821 5820 5818 5817 5816 5814 5813 5811 5809 5806 5802 5799 5796 5791 5787 5782 5778 5773 5769 5764 5758 5752 5745 5740 5734 5728
5809 5809 5810 5812 5812 5813 5814 5815 5816 5816 5816 5817 5817 5817 5817 5816 5816 5816 5815 5814 5812 5811 5810 5807 5805 5803 5800 5797 5794 5792 5788 5782 5777 5772 5767 5760 5755 5749 5743 5735 5728 5723 5717 5710
5803 5803 5804 5806 5806 5807 5809 5811 5811 5811 5811 5812 5812 5810 5810 5810 5809 5808 5807 5807 5806 5804 5802 5799 5796 5793 5791 5789 5785 5781 5776 5770 5765 5759 5753 5747 5741 5735 5728 5721 5713 5706 5699 5692
5796 5797 5799 5799 5801 5803 5803 5805 5806 5806 5805 5805 5804 5803 5803 5802 5802 5800 5798 5797 5795 5794 5792 5790 5788 5785 5783 5780 5775 5770 5766 5761 5755 5748 5741 5734 5727 5719 5710 5701 5693 5685 5678 5671
5791 5791 5792 5793 5795 5797 5797 5798 5800 5800 5798 5797 5796 5796 5795 5794 5792 5790 5788 5786 5785 5784 5783 5781 5779 5776 5772 5768 5764 5760 5754 5747 5740 5733 5725 5717 5709 5700 5691 5683 5674 5667 5661 5652
5785 5786 5787 5788 5789 5790 5792 5792 5793 5793 5792 5790 5789 5787 5787 5786 5784 5782 5780 5779 5777 5776 5774 5772 5769 5766 5763 5759 5754 5748 5740 5732 5723 5715 5707 5700 5692 5683 5675 5666 5659 5651 5644 5637
5778 5780 5782 5783 5783 5785 5787 5788 5788 5788 5787 5785 5782 5782 5780 5778 5776 5774 5773 5771 5770 5767 5765 5764 5761 5757 5752 5746 5740 5732 5723 5715 5707 5700 5692 5684 5676 5668 5659 5651 5643 5636 5630 5622
5771 5774 5775 5775 5776 5778 5780 5780 5781 5781 5779 5777 5776 5777 5773 5770 5768 5767 5766 5764 5762 5760 5757 5754 5748 5742 5737 5730 5723 5715 5707 5698 5692 5684 5677 5670 5662 5654 5646 5638 5630 5622 5614 5607
5764 5765 5766 5766 5769 5770 5771 5772 5772 5772 5771 5769 5768 5769 5765 5763 5761 5760 5758 5755 5753 5750 5746 5740 5735 5728 5722 5715 5708 5700 5692 5685 5677 5669 5661 5655 5647 5640 5633 5625 5617 5608 5601 5594
5754 5756 5758 5759 5759 5761 5762 5762 5762 5763 5762 5761 5760 5759 5757 5755 5754 5751 5749 5746 5742 5737 5732 5728 5723 5716 5709 5701 5693 5684 5675 5666 5658 5651 5646 5640 5633 5627 5620 5614 5606 5599 5592 5585
5744 5746 5748 5749 5750 5751 5752 5752 5754 5754 5754 5753 5752 5750 5748 5747 5745 5742 5739 5735 5731 5726 5721 5715 5709 5702 5694 5684 5674 5665 5657 5650 5643 5638 5633 5628 5622 5617 5611 5605 5599 5592 5586 5580
5732 5734 5737 5738 5740 5741 5741 5743 5745 5746 5745 5744 5743 5742 5740 5738 5735 5732 5728 5724 5719 5715 5709 5703 5695 5686 5676 5667 5658 5650 5642 5636 5630 5626 5621 5617 5613 5609 5604 5599 5594 5588 5582 5576
5721 5723 5726 5728 5729 5730 5732 5734 5735 5736 5735 5735 5733 5733 5732 5730 5726 5722 5718 5714 5709 5704 5697 5689 5679 5669 5659 5650 5642 5634 5627 5623 5618 5614 5611 5608 5605 5603 5600 5596 5590 5585 5579 5573
5711 5713 5715 5717 5719 5721 5725 5725 5726 5727 5726 5725 5725 5724 5722 5720 5716 5711 5707 5703 5697 5689 5681 5672 5663 5654 5645 5637 5629 5621 5615 5611 5606 5604 5603 5603 5603 5601 5597 5593 5587 5582 5576 5571
5702 5704 5706 5707 5709 5711 5715 5716 5717 5718 5717 5717 5716 5714 5712 5709 5705 5700 5696 5690 5683 5675 5666 5658 5651 5644 5636 5629 5621 5613 5607 5603 5602 5603 5603 5603 5601 5599 5596 5592 5587 5582 5576 5570
5692 5695 5697 5698 5700 5702 5707 5708 5708 5710 5709 5708 5706 5704 5701 5698 5695 5690 5684 5678 5671 5662 5655 5648 5642 5636 5631 5625 5618 5611 5608 5607 5606 5606 5605 5603 5601 5598 5596 5592 5587 5582 5575 5570
5682 5684 5687 5688 5690 5692 5697 5698 5699 5701 5701 5700 5698 5694 5691 5688 5686 5681 5673 5666 5659 5653 5647 5642 5636 5631 5629 5625 5620 5617 5614 5612 5611 5609 5608 5606 5604 5601 5598 5593 5587 5580 5574 5569
5673 5674 5676 5679 5682 5687 5688 5689 5691 5692 5692 5691 5688 5685 5681 5678 5674 5669 5663 5656 5651 5646 5641 5636 5632 5630 5628 5626 5623 5620 5619 5617 5615 5613 5612 5610 5608 5604 5598 5591 5585 5578 5572 5567
5663 5667 5668 5672 5676 5677 5679 5681 5683 5684 5682 5680 5677 5674 5672 5668 5665 5659 5653 5649 5646 5642 5638 5634 5632 5630 5629 5627 5626 5625 5624 5622 5621 5619 5616 5613 5609 5604 5597 5590 5583 5576 5568 5561
5655 5658 5660 5663 5666 5670 5672 5674 5674 5674 5673 5670 5668 5665 5662 5659 5654 5649 5646 5644 5642 5639 5637 5635 5634 5632 5632 5631 5631 5630 5629 5627 5626 5623 5620 5615 5610 5603 5597 5589 5581 5573 5565 5558
5646 5649 5653 5656 5660 5663 5664 5665 5665 5664 5663 5660 5658 5656 5652 5648 5645 5642 5641 5641 5639 5638 5638 5637 5637 5637 5637 5636 5636 5635 5634 5632 5629 5626 5623 5618 5611 5603 5595 5587 5580 5571 5563 5556
5640 5644 5649 5652 5655 5656 5656 5656 5655 5654 5653 5651 5648 5646 5643 5641 5640 5639 5639 5638 5639 5640 5641 5641 5641 5641 5641 5641 5641 5639 5638 5636 5634 5630 5626 5619 5612 5605 5597 5588 5579 5569 5560 5552